1487844000.21,56588,11.0,72356.5,-1.75,-3.27,-3.27,0,*55
1487844001.41,56589,11.0,72352.5,-1.71,-3.11,-3.07,0,*57
1487844002.6,56590,11.0,72348.8,-1.71,-3.23,-3.31,0,*5B
1487844003.85,56591,11.0,72348.8,-1.71,-3.51,-3.51,0,*59
1487844005.05,56592,11.06,72348.0,-1.71,-3.35,-3.35,0,*5A
1487844006.28,56593,11.0,72348.3,-1.69,-2.95,-2.95,0,*52
1487844007.5,56594,11.0,72352.3,-1.69,-3.07,-3.15,0,*56
1487844008.7,56595,11.0,72362.3,-1.67,-3.15,-3.19,0,*56
1487844009.9,56596,11.0,72356.0,-1.67,-4.05,-4.09,0,*55
1487844011.1,56597,11.06,72362.3,-1.67,-4.05,-3.91,0,*52
1487844012.31,56598,11.0,72360.5,-1.67,-3.83,-3.83,0,*57
1487844013.55,56599,11.0,72364.3,-1.67,-3.55,-3.55,0,*56
1487844014.78,56600,11.0,72370.8,-1.65,-3.91,-4.05,0,*5D
1487844015.97,56601,11.0,72372.5,-1.67,-4.45,-4.57,0,*57
1487844017.22,56602,11.0,72358.5,-1.65,-4.65,-4.69,0,*59
1487844018.44,56603,11.0,72338.3,-1.67,-4.85,-4.99,0,*5B
1487844019.69,56604,11.0,72322.3,-1.69,-5.15,-5.35,0,*5D
1487844020.97,56605,11.0,72328.3,-1.69,-5.77,-5.85,0,*53
1487844022.22,56606,11.0,72332.3,-1.73,-5.51,-5.65,0,*51
1487844023.43,56607,11.0,72350.3,-1.73,-5.43,-5.39,0,*5A
1487844024.68,56608,11.0,72342.8,-1.75,-5.61,-5.73,0,*5D
1487844025.92,56609,11.0,72362.0,-1.75,-5.61,-5.73,0,*5C
1487844027.17,56610,11.0,72348.3,-1.81,-5.81,-5.89,0,*54
1487844028.37,56611,11.0,72356.0,-1.81,-5.43,-5.55,0,*5A
1487844029.59,56612,11.0,72338.5,-1.81,-5.27,-5.39,0,*51
1487844030.82,56613,11.0,72344.5,-1.85,-5.55,-5.81,0,*52
1487844032.06,56614,11.0,72360.5,-1.85,-5.69,-5.73,0,*57
1487844033.31,56615,11.0,72352.3,-1.85,-5.07,-5.31,0,*58
1487844034.52,56616,11.06,72352.3,-1.85,-5.43,-5.81,0,*50
1487844035.71,56617,11.0,72342.0,-1.85,-5.43,-5.97,0,*56
1487844036.95,56618,11.0,72342.8,-1.87,-5.61,-6.47,0,*55
1487844038.22,56619,11.06,72366.3,-1.87,-5.85,-7.01,0,*5D
1487844039.47,56620,11.0,72378.3,-1.89,-6.19,-8.11,0,*51
1487844040.75,56621,11.0,72378.3,-1.91,-6.97,-9.11,0,*5E
1487844041.97,56622,11.0,72380.8,-1.93,-7.15,-9.37,0,*50
1487844043.19,56623,11.0,72358.8,-1.97,-7.95,-10.09,0,*68
1487844044.39,56624,11.06,72360.5,-1.97,-8.59,-10.53,0,*6F
1487844045.59,56625,11.0,72366.8,-1.97,-9.27,-10.93,0,*6A
1487844046.83,56626,11.0,72348.3,-1.99,-9.57,-10.85,0,*67
1487844048.03,56627,11.0,72336.0,-2.01,-9.67,-10.19,0,*62
1487844049.25,56628,11.06,72344.8,-2.01,-9.49,-9.79,0,*5F
1487844050.45,56629,11.0,72346.0,-2.05,-8.89,-9.23,0,*58
1487844051.66,56630,11.06,72338.3,-2.01,-8.93,-9.93,0,*54
1487844052.86,56631,11.0,72342.8,-2.01,-8.41,-10.27,0,*6D
1487844054.06,56632,11.06,72368.0,-2.01,-8.29,-10.57,0,*67
1487844055.27,56633,11.06,72370.5,-2.05,-8.59,-12.03,0,*66
1487844056.46,56634,11.0,72344.8,-2.05,-10.53,-14.11,0,*57
1487844057.71,56635,11.06,72362.8,-2.07,-12.25,-15.71,0,*50
1487844058.95,56636,11.06,72362.5,-2.07,-14.11,-16.79,0,*59
1487844060.21,56637,11.0,72370.3,-2.07,-15.35,-16.37,0,*55
1487844061.49,56638,11.0,72372.0,-2.07,-16.23,-15.85,0,*54
1487844062.76,56639,11.06,72376.0,-2.07,-17.41,-15.15,0,*59
1487844064.02,56640,11.06,72380.8,-2.09,-17.25,-13.33,0,*59
1487844065.23,56641,11.0,72380.5,-2.09,-16.55,-11.23,0,*5D
1487844066.42,56642,11.06,72374.3,-2.09,-14.61,-8.59,0,*6E
1487844067.67,56643,11.06,72360.0,-2.05,-13.29,-6.97,0,*64
1487844068.93,56644,11.0,72348.5,-2.01,-11.97,-5.61,0,*6A
1487844070.14,56645,11.0,72338.3,-1.97,-9.71,-3.67,0,*56
1487844071.38,56646,11.06,72330.3,-1.95,-9.61,-4.17,0,*56
1487844072.61,56647,11.0,72322.8,-1.91,-9.01,-4.25,0,*54
1487844073.82,56648,11.0,72336.8,-1.87,-7.83,-3.87,0,*57
1487844075.05,56649,11.0,72328.0,-1.87,-6.51,-3.75,0,*55
1487844076.26,56650,11.06,72330.3,-1.83,-4.99,-3.19,0,*55
1487844077.49,56651,11.0,72332.3,-1.83,-4.21,-3.07,0,*58
1487844078.73,56652,11.0,72324.3,-1.77,-3.75,-3.27,0,*54
1487844080.0,56653,11.06,72322.5,-1.77,-3.55,-3.51,0,*56
1487844081.24,56654,11.06,72334.8,-1.73,-3.71,-3.87,0,*58
1487844082.46,56655,11.0,72322.0,-1.73,-4.13,-4.65,0,*51
1487844083.71,56656,11.0,72326.8,-1.73,-4.29,-4.85,0,*55
1487844084.93,56657,11.0,72344.5,-1.71,-4.85,-5.47,0,*5F
1487844086.18,56658,11.0,72348.8,-1.69,-4.85,-5.51,0,*5E
1487844087.43,56659,11.0,72334.8,-1.71,-5.03,-5.85,0,*50
1487844088.71,56660,11.0,72328.8,-1.69,-4.73,-5.89,0,*59
1487844089.96,56661,11.0,72324.5,-1.69,-5.47,-6.97,0,*52
1487844091.18,56662,11.06,72328.8,-1.67,-5.77,-7.23,0,*52
1487844092.46,56663,11.0,72328.8,-1.65,-5.31,-7.73,0,*56
1487844093.71,56664,11.06,72340.8,-1.65,-6.69,-9.83,0,*5E
1487844094.94,56665,11.0,72332.5,-1.65,-9.01,-11.11,0,*6C
1487844096.17,56666,11.0,72338.5,-1.61,-9.27,-9.93,0,*5C
1487844097.41,56667,11.06,72348.0,-1.53,-9.49,-9.31,0,*5C
1487844098.67,56668,11.06,72382.8,-1.51,-10.41,-9.83,0,*68
1487844099.88,56669,11.06,72376.3,-1.51,-13.51,-11.15,0,*5D
1487844101.16,56670,11.06,72366.8,-1.49,-14.51,-9.53,0,*60
1487844102.39,56671,11.06,72358.5,-1.47,-13.47,-7.53,0,*61
1487844103.65,56672,11.06,72350.3,-1.43,-11.29,-5.43,0,*6F
1487844104.84,56673,11.06,72350.0,-1.41,-8.17,-3.79,0,*56
1487844106.07,56674,11.06,72344.8,-1.39,-6.77,-2.99,0,*59
1487844107.29,56675,11.06,72338.8,-1.35,-5.39,-2.43,0,*5A
1487844108.51,56676,11.06,72316.0,-1.31,-4.49,-2.31,0,*5E
1487844109.73,56677,11.06,72294.5,-1.27,-3.15,-1.79,0,*59
1487844111.01,56678,11.06,72290.3,-1.23,-2.75,-1.83,0,*50
1487844112.25,56679,11.06,72290.8,-1.19,-2.79,-1.91,0,*57
1487844113.47,56680,11.06,72296.8,-1.19,-3.07,-2.15,0,*56
1487844114.67,56681,11.0,72296.3,-1.15,-3.23,-2.31,0,*5B
1487844115.92,56682,11.06,72320.3,-1.15,-2.59,-1.87,0,*5A
1487844117.16,56683,11.06,72312.8,-1.13,-2.39,-1.83,0,*5F
1487844118.39,56684,11.06,72318.3,-1.11,-2.11,-1.79,0,*55
1487844119.61,56685,11.06,72328.5,-1.07,-2.31,-1.95,0,*53
1487844120.86,56686,11.06,72338.8,-1.05,-2.15,-1.83,0,*53
1487844122.11,56687,11.06,72330.5,-1.01,-2.59,-2.35,0,*50
1487844123.36,56688,11.06,72334.5,-1.01,-2.47,-2.23,0,*57
1487844124.61,56689,11.0,72330.0,-1.01,-2.27,-1.87,0,*5D
1487844125.86,56690,11.06,72330.8,-1.01,-2.51,-2.35,0,*5E
1487844127.08,56691,11.06,72330.3,-0.97,-2.35,-2.23,0,*64
1487844128.31,56692,11.06,72362.8,-0.97,-2.35,-2.11,0,*66
1487844129.52,56693,11.06,72354.8,-0.93,-3.03,-2.91,0,*6F
1487844130.75,56694,11.0,72360.8,-0.93,-3.83,-3.79,0,*67
1487844131.97,56695,11.06,72356.5,-0.95,-3.79,-3.67,0,*6A
1487844133.16,56696,11.06,72326.5,-0.95,-4.25,-4.33,0,*61
1487844134.4,56697,11.06,72312.3,-0.99,-4.81,-4.89,0,*63
1487844135.59,56698,11.06,72314.0,-0.99,-4.41,-4.41,0,*64
1487844136.86,56699,11.06,72312.0,-1.01,-4.77,-4.77,0,*55
1487844138.13,56700,11.06,72308.3,-1.01,-4.81,-4.93,0,*57
1487844139.38,56701,11.06,72312.0,-1.03,-5.15,-5.15,0,*57
1487844140.66,56702,11.0,72312.8,-1.05,-5.27,-5.27,0,*52
1487844141.91,56703,11.06,72314.5,-1.11,-5.15,-5.11,0,*52
1487844143.2,56704,11.06,72308.5,-1.13,-5.03,-5.03,0,*53
1487844144.48,56705,11.06,72318.8,-1.13,-5.15,-5.07,0,*51
1487844145.73,56706,11.0,72310.5,-1.15,-4.89,-4.81,0,*5F
1487844146.95,56707,11.06,72308.8,-1.17,-5.07,-4.99,0,*52
1487844148.21,56708,11.06,72320.8,-1.19,-4.85,-4.81,0,*51
1487844149.45,56709,11.06,72322.5,-1.21,-4.85,-4.93,0,*58
1487844150.7,56710,11.06,72322.8,-1.21,-5.27,-5.31,0,*50
1487844151.96,56711,11.06,72300.3,-1.23,-4.93,-4.89,0,*5F
1487844153.2,56712,11.06,72302.5,-1.25,-4.77,-4.77,0,*51
1487844154.44,56713,11.06,72310.0,-1.25,-5.19,-5.27,0,*5D
1487844155.66,56714,11.06,72324.0,-1.27,-4.99,-4.99,0,*55
1487844156.9,56715,11.06,72328.8,-1.29,-4.85,-4.85,0,*5A
1487844158.14,56716,11.06,72310.3,-1.29,-4.73,-4.85,0,*50
1487844159.39,56717,11.06,72314.3,-1.27,-4.99,-5.07,0,*50
1487844160.66,56718,11.06,72312.3,-1.35,-5.03,-5.15,0,*5D
1487844161.88,56719,11.06,72316.5,-1.35,-5.35,-5.43,0,*5A
1487844163.16,56720,11.06,72322.5,-1.35,-4.89,-4.89,0,*51
1487844164.38,56721,11.06,72326.0,-1.39,-4.61,-4.65,0,*58
1487844165.6,56722,11.06,72334.5,-1.39,-4.25,-4.17,0,*5E
1487844166.82,56723,11.06,72332.5,-1.39,-4.37,-4.25,0,*5D
1487844168.05,56724,11.06,72334.3,-1.35,-4.33,-4.21,0,*56
1487844169.27,56725,11.06,72336.3,-1.39,-4.65,-4.37,0,*5F
1487844170.49,56726,11.06,72340.5,-1.41,-4.73,-4.57,0,*52
1487844171.68,56727,11.06,72344.5,-1.41,-4.45,-4.33,0,*54
1487844172.87,56728,11.06,72332.5,-1.41,-4.41,-4.41,0,*5A
1487844174.06,56729,11.06,72336.5,-1.41,-4.53,-4.45,0,*5C
1487844175.28,56730,11.06,72340.0,-1.43,-4.29,-4.17,0,*5C
1487844176.51,56731,11.06,72344.5,-1.43,-4.41,-4.41,0,*50
1487844177.72,56732,11.06,72346.5,-1.43,-4.45,-4.41,0,*57
1487844178.94,56733,11.06,72350.3,-1.43,-4.53,-4.45,0,*55
1487844180.16,56734,11.06,72350.0,-1.45,-4.73,-4.61,0,*50
1487844181.4,56735,11.06,72346.8,-1.43,-4.57,-4.57,0,*54
1487844182.64,56736,11.06,72344.8,-1.45,-4.85,-4.85,0,*51
1487844183.84,56737,11.06,72346.0,-1.45,-4.37,-4.33,0,*54
1487844185.11,56738,11.06,72344.5,-1.47,-4.81,-4.89,0,*55
1487844186.39,56739,11.06,72350.5,-1.49,-5.27,-5.27,0,*52
1487844187.66,56740,11.06,72338.0,-1.49,-4.81,-4.89,0,*54
1487844188.92,56741,11.06,72338.3,-1.49,-4.89,-4.93,0,*56
1487844190.16,56742,11.06,72342.0,-1.51,-4.77,-4.69,0,*58
1487844191.4,56743,11.06,72346.0,-1.51,-4.77,-4.81,0,*5F
1487844192.64,56744,11.06,72342.3,-1.51,-4.69,-4.81,0,*57
1487844193.86,56745,11.06,72346.8,-1.53,-4.45,-4.33,0,*53
1487844195.06,56746,11.06,72344.3,-1.51,-4.29,-4.21,0,*5B
1487844196.28,56747,11.06,72340.0,-1.53,-4.09,-3.95,0,*52
1487844197.51,56748,11.06,72344.5,-1.53,-4.05,-3.91,0,*55
1487844198.72,56749,11.06,72346.3,-1.53,-4.45,-4.29,0,*54
1487844199.94,56750,11.06,72342.8,-1.53,-4.53,-4.33,0,*50
1487844201.19,56751,11.06,72338.0,-1.53,-4.77,-4.65,0,*54
1487844202.41,56752,11.06,72336.0,-1.53,-4.57,-4.57,0,*54
1487844203.64,56753,11.06,72334.8,-1.53,-3.87,-3.75,0,*58
1487844204.87,56754,11.06,72334.8,-1.53,-3.75,-3.75,0,*52
1487844206.1,56755,11.06,72336.3,-1.53,-4.05,-3.95,0,*5D
1487844207.31,56756,11.06,72340.8,-1.53,-4.53,-4.45,0,*57
1487844208.54,56757,11.06,72340.0,-1.53,-4.29,-4.21,0,*59
1487844209.78,56758,11.06,72348.5,-1.53,-4.21,-4.21,0,*5E
1487844211.01,56759,11.06,72348.8,-1.53,-4.29,-4.21,0,*57
1487844212.2,56760,11.06,72344.8,-1.55,-4.45,-4.33,0,*52
1487844213.39,56761,11.06,72346.5,-1.55,-4.45,-4.37,0,*57
1487844214.59,56762,11.06,72346.5,-1.55,-4.61,-4.57,0,*54
1487844215.8,56763,11.06,72344.5,-1.55,-4.57,-4.37,0,*56
1487844217.02,56764,11.06,72350.5,-1.53,-4.09,-4.09,0,*51
1487844218.22,56765,11.06,72354.5,-1.59,-4.09,-3.95,0,*58
1487844219.43,56766,11.06,72360.0,-1.55,-3.79,-3.79,0,*55
1487844220.64,56767,11.06,72364.8,-1.59,-3.79,-3.79,0,*58
1487844221.87,56768,11.06,72362.8,-1.55,-4.01,-3.95,0,*51
1487844223.13,56769,11.06,72358.3,-1.55,-4.01,-4.01,0,*5A
1487844224.33,56770,11.06,72352.5,-1.55,-4.09,-4.09,0,*52
1487844225.53,56771,11.06,72348.8,-1.55,-4.25,-4.21,0,*57
1487844226.76,56772,11.06,72334.0,-1.53,-4.17,-4.09,0,*59
1487844227.96,56773,11.06,72326.3,-1.55,-4.09,-4.09,0,*51
1487844229.16,56774,11.06,72332.5,-1.55,-4.33,-4.21,0,*55
1487844230.37,56775,11.06,72334.5,-1.55,-4.57,-4.57,0,*57
1487844231.56,56776,11.06,72328.3,-1.55,-4.49,-4.49,0,*54
1487844232.76,56777,11.06,72332.3,-1.55,-4.45,-4.37,0,*50
1487844233.98,56778,11.06,72358.3,-1.59,-4.69,-4.61,0,*5E
1487844235.23,56779,11.06,72340.5,-1.59,-4.69,-4.69,0,*57
1487844236.42,56780,11.06,72338.0,-1.59,-4.45,-4.49,0,*5D
1487844237.63,56781,11.06,72332.3,-1.59,-4.25,-4.25,0,*50
1487844238.86,56782,11.06,72340.8,-1.59,-4.09,-4.01,0,*5B
1487844240.07,56783,11.06,72334.5,-1.59,-4.25,-4.21,0,*56
1487844241.28,56784,11.06,72336.3,-1.55,-4.33,-4.13,0,*5B
1487844242.48,56785,11.06,72340.5,-1.59,-4.33,-4.09,0,*5D
1487844243.68,56786,11.06,72346.8,-1.59,-4.45,-4.21,0,*55
1487844244.88,56787,11.06,72342.0,-1.55,-4.33,-4.09,0,*53
1487844246.1,56788,11.06,72340.0,-1.59,-4.09,-3.71,0,*51
1487844247.33,56789,11.06,72336.5,-1.55,-3.83,-3.59,0,*53
1487844248.56,56790,11.06,72332.8,-1.55,-4.21,-4.01,0,*5E
1487844249.77,56791,11.06,72330.3,-1.59,-3.95,-3.91,0,*55
1487844250.98,56792,11.06,72324.5,-1.59,-3.95,-3.91,0,*56
1487844252.21,56793,11.06,72328.8,-1.55,-4.01,-3.95,0,*55
1487844253.42,56794,11.06,72336.5,-1.55,-3.91,-3.91,0,*58
1487844254.65,56795,11.06,72340.5,-1.53,-4.05,-3.95,0,*51
1487844255.88,56796,11.06,72348.5,-1.53,-3.91,-3.91,0,*5C
1487844257.11,56797,11.06,72354.5,-1.53,-3.91,-3.87,0,*5A
1487844258.32,56798,11.06,72362.3,-1.55,-4.21,-4.25,0,*50
1487844259.52,56799,11.06,72370.8,-1.55,-4.33,-4.33,0,*55
1487844260.77,56800,11.06,72378.8,-1.53,-4.57,-4.81,0,*57
1487844262.04,56801,11.0,72388.0,-1.53,-5.73,-5.89,0,*58
1487844263.24,56802,11.06,72404.8,-1.55,-6.47,-6.39,0,*51
1487844264.47,56803,11.06,72418.3,-1.55,-7.05,-6.43,0,*5A
1487844265.72,56804,11.06,72380.0,-1.61,-6.73,-5.85,0,*53
1487844267.0,56805,11.06,72344.3,-1.61,-5.73,-5.07,0,*5B
1487844268.23,56806,11.06,72326.0,-1.63,-5.19,-4.65,0,*53
1487844269.49,56807,11.06,72326.3,-1.61,-5.31,-4.61,0,*5E
1487844270.75,56808,11.06,72318.5,-1.61,-5.55,-4.89,0,*55
1487844271.97,56809,11.06,72318.5,-1.63,-5.43,-4.89,0,*51
1487844273.25,56810,11.06,72322.8,-1.61,-5.69,-5.27,0,*56
1487844274.48,56811,11.06,72324.3,-1.63,-5.39,-5.19,0,*5D
1487844275.75,56812,11.06,72324.8,-1.61,-4.93,-4.77,0,*54
1487844276.97,56813,11.06,72330.3,-1.63,-4.77,-4.61,0,*5A
1487844278.17,56814,11.06,72338.5,-1.63,-4.29,-4.17,0,*57
1487844279.37,56815,11.06,72340.3,-1.63,-3.87,-3.75,0,*56
1487844280.6,56816,11.06,72348.8,-1.61,-3.87,-3.83,0,*5E
1487844281.83,56817,11.06,72352.0,-1.63,-4.01,-3.87,0,*50
1487844283.03,56818,11.06,72354.5,-1.63,-4.17,-4.05,0,*55
1487844284.25,56819,11.06,72352.8,-1.61,-4.37,-4.25,0,*56
1487844285.48,56820,11.06,72360.0,-1.61,-4.61,-4.53,0,*5E
1487844286.68,56821,11.06,72348.8,-1.63,-4.61,-4.53,0,*5D
1487844287.88,56822,11.06,72346.8,-1.63,-4.49,-4.41,0,*57
1487844289.13,56823,11.06,72358.8,-1.61,-4.65,-4.73,0,*5B
1487844290.33,56824,11.06,72338.3,-1.63,-4.53,-4.53,0,*59
1487844291.53,56825,11.06,72344.8,-1.63,-4.61,-4.49,0,*52
1487844292.77,56826,11.06,72348.0,-1.63,-4.89,-4.77,0,*5A
1487844294.0,56827,11.06,72352.5,-1.63,-5.31,-5.39,0,*52
1487844295.23,56828,11.06,72336.0,-1.67,-5.47,-5.61,0,*55
1487844296.48,56829,11.06,72316.3,-1.67,-5.65,-5.73,0,*57
1487844297.73,56830,11.06,72320.8,-1.71,-5.77,-5.77,0,*5F
1487844298.96,56831,11.06,72320.5,-1.71,-5.93,-6.05,0,*52
1487844300.21,56832,11.06,72334.8,-1.75,-6.19,-6.23,0,*50
1487844301.41,56833,11.06,72326.8,-1.75,-6.01,-6.09,0,*50
1487844302.64,56834,11.06,72302.5,-1.75,-5.55,-5.61,0,*58
1487844303.83,56835,11.06,72310.0,-1.81,-5.97,-5.97,0,*55
1487844305.08,56836,11.06,72312.3,-1.81,-5.69,-5.69,0,*56
1487844306.32,56837,11.06,72308.8,-1.81,-5.69,-5.77,0,*58
1487844307.56,56838,11.06,72302.3,-1.85,-5.73,-5.73,0,*5C
1487844308.83,56839,11.06,72294.8,-1.87,-5.69,-5.73,0,*54
1487844310.1,56840,11.06,72270.0,-1.87,-5.69,-5.69,0,*51
1487844311.33,56841,11.06,72282.8,-1.89,-5.73,-5.77,0,*5A
1487844312.53,56842,11.06,72302.0,-1.89,-5.39,-5.47,0,*54
1487844313.78,56843,11.06,72336.3,-1.89,-5.27,-5.23,0,*58
1487844315.03,56844,11.06,72350.0,-1.89,-5.19,-5.23,0,*52
1487844316.28,56845,11.06,72344.3,-1.89,-5.27,-5.27,0,*5A
1487844317.51,56846,11.06,72336.3,-1.93,-5.31,-5.51,0,*54
1487844318.78,56847,11.06,72338.3,-1.91,-5.27,-5.27,0,*51
1487844320.04,56848,11.06,72340.0,-1.93,-5.31,-5.27,0,*5B
1487844321.29,56849,11.06,72344.8,-1.93,-5.31,-5.31,0,*5D
1487844322.54,56850,11.06,72342.5,-1.93,-5.23,-5.15,0,*50
1487844323.81,56851,11.06,72334.3,-1.95,-5.19,-5.15,0,*5E
1487844325.09,56852,11.06,72334.3,-1.95,-5.19,-5.31,0,*5B
1487844326.37,56853,11.06,72344.3,-1.95,-5.31,-5.31,0,*50
1487844327.62,56854,11.06,72350.5,-1.97,-5.07,-5.07,0,*55
1487844328.87,56855,11.06,72344.0,-1.97,-5.27,-5.07,0,*56
1487844330.11,56856,11.06,72350.8,-1.97,-5.03,-4.81,0,*5C
1487844331.35,56857,11.06,72350.5,-1.97,-4.89,-4.77,0,*57
1487844332.59,56858,11.06,72346.8,-1.97,-4.93,-4.89,0,*52
1487844333.84,56859,11.06,72338.5,-1.97,-5.07,-5.03,0,*5C
1487844335.08,56860,11.06,72336.3,-1.97,-5.03,-4.93,0,*5A
1487844336.33,56861,11.06,72346.0,-1.97,-4.89,-4.89,0,*53
1487844337.57,56862,11.06,72340.8,-1.99,-5.11,-4.99,0,*5F
1487844338.81,56863,11.06,72346.5,-1.99,-4.73,-4.61,0,*5C
1487844340.03,56864,11.06,72338.5,-1.99,-4.61,-4.49,0,*52
1487844341.24,56865,11.06,72334.8,-2.01,-4.99,-4.93,0,*51
1487844342.51,56866,11.06,72338.5,-1.99,-4.81,-4.81,0,*5A
1487844343.78,56867,11.06,72338.8,-1.99,-4.73,-4.73,0,*5B
1487844345.0,56868,11.06,72340.0,-1.99,-4.61,-4.57,0,*51
1487844346.28,56869,11.06,72338.3,-1.99,-5.07,-5.07,0,*55
1487844347.55,56870,11.06,72328.5,-1.99,-4.93,-4.81,0,*5E
1487844348.81,56871,11.06,72308.8,-1.99,-4.81,-4.73,0,*51
1487844350.08,56872,11.06,72300.3,-1.99,-4.73,-4.69,0,*54
1487844351.27,56873,11.06,72300.0,-1.97,-4.57,-4.45,0,*53
1487844352.49,56874,11.06,72308.8,-1.97,-4.17,-4.01,0,*50
1487844353.68,56875,11.06,72312.8,-1.97,-4.05,-3.91,0,*5C
1487844354.88,56876,11.06,72322.0,-1.97,-4.13,-3.91,0,*58
1487844356.1,56877,11.06,72318.8,-1.95,-4.29,-4.29,0,*56
1487844357.32,56878,11.06,72316.3,-1.95,-4.05,-4.05,0,*59
1487844358.56,56879,11.06,72316.3,-1.95,-4.17,-4.01,0,*5F
1487844359.76,56880,11.06,72308.3,-1.93,-3.95,-3.87,0,*5B
1487844361.01,56881,11.06,72304.5,-1.91,-4.01,-3.83,0,*56
1487844362.23,56882,11.06,72316.3,-1.91,-3.87,-3.83,0,*5C
1487844363.46,56883,11.06,72312.8,-1.91,-4.61,-4.61,0,*59
1487844364.68,56884,11.06,72310.0,-1.91,-4.53,-4.53,0,*5E
1487844365.87,56885,11.06,72336.5,-1.93,-4.65,-4.53,0,*58
1487844367.1,56886,11.06,72298.3,-1.91,-4.21,-4.33,0,*5F
1487844368.34,56887,11.06,72284.3,-1.89,-4.73,-4.85,0,*5D
1487844369.56,56888,11.06,72290.3,-1.89,-4.69,-4.61,0,*53
1487844370.77,56889,11.06,72312.8,-1.89,-4.61,-4.73,0,*59
1487844372.04,56890,11.06,72316.8,-1.87,-4.77,-4.89,0,*5D
1487844373.3,56891,11.06,72318.0,-1.87,-4.81,-4.81,0,*5D
1487844374.58,56892,11.06,72312.5,-1.87,-5.03,-5.03,0,*5E
1487844375.83,56893,11.06,72314.3,-1.87,-5.55,-5.31,0,*5D
1487844377.11,56894,11.06,72306.5,-1.87,-5.69,-5.07,0,*50
1487844378.33,56895,11.06,72314.5,-1.85,-5.15,-4.45,0,*5F
1487844379.55,56896,11.06,72312.0,-1.85,-5.03,-4.29,0,*51
1487844380.77,56897,11.06,72310.3,-1.83,-5.39,-4.41,0,*51
1487844381.98,56898,11.06,72298.0,-1.85,-4.93,-4.17,0,*5A
1487844383.19,56899,11.06,72306.3,-1.81,-4.49,-4.01,0,*5F
1487844384.4,56900,11.06,72300.8,-1.81,-4.09,-3.71,0,*5A
1487844385.63,56901,11.06,72312.8,-1.77,-4.25,-3.87,0,*55
1487844386.88,56902,11.06,72316.0,-1.77,-3.87,-3.63,0,*53
1487844388.13,56903,11.06,72322.5,-1.77,-3.55,-3.39,0,*52
1487844389.35,56904,11.06,72324.0,-1.75,-3.51,-3.35,0,*5F
1487844390.58,56905,11.06,72326.3,-1.75,-3.67,-3.39,0,*57
1487844391.85,56906,11.06,72314.5,-1.73,-3.63,-3.51,0,*58
1487844393.1,56907,11.06,72314.5,-1.73,-4.01,-3.95,0,*52
1487844394.3,56908,11.06,72332.8,-1.71,-4.25,-4.13,0,*50
1487844395.53,56909,11.06,72334.3,-1.71,-4.09,-4.01,0,*5C
1487844396.77,56910,11.06,72332.8,-1.73,-4.13,-4.01,0,*5D
1487844397.99,56911,11.06,72338.3,-1.73,-4.29,-4.09,0,*5D
1487844399.21,56912,11.06,72348.3,-1.73,-4.17,-4.13,0,*58
1487844400.44,56913,11.06,72340.0,-1.73,-4.29,-4.25,0,*51
1487844401.63,56914,11.06,72340.8,-1.75,-4.29,-4.17,0,*51
1487844402.86,56915,11.06,72342.5,-1.71,-4.09,-4.01,0,*51
1487844404.11,56916,11.06,72348.0,-1.73,-3.75,-3.71,0,*5C
1487844405.35,56917,11.06,72348.5,-1.71,-3.63,-3.47,0,*5D
1487844406.58,56918,11.06,72350.5,-1.71,-3.47,-3.35,0,*51
1487844407.8,56919,11.06,72354.0,-1.69,-3.95,-3.95,0,*5C
1487844409.04,56920,11.06,72354.3,-1.69,-3.91,-3.91,0,*56
1487844410.27,56921,11.06,72356.5,-1.69,-3.95,-3.91,0,*53
1487844411.5,56922,11.06,72356.8,-1.71,-4.01,-3.95,0,*57
1487844412.73,56923,11.06,72356.8,-1.69,-3.95,-3.95,0,*55
1487844413.95,56924,11.06,72356.5,-1.69,-4.09,-4.05,0,*5E
1487844415.21,56925,11.06,72360.0,-1.71,-4.01,-4.01,0,*5A
1487844416.44,56926,11.06,72384.0,-1.69,-3.79,-3.79,0,*50
1487844417.66,56927,11.06,72374.0,-1.65,-4.21,-4.17,0,*58
1487844418.88,56928,11.06,72354.5,-1.69,-4.45,-4.37,0,*5B
1487844420.11,56929,11.06,72364.8,-1.69,-4.33,-4.33,0,*5F
1487844421.32,56930,11.06,72356.5,-1.69,-4.49,-4.45,0,*5B
1487844422.55,56931,11.06,72340.0,-1.69,-4.57,-4.57,0,*56
1487844423.78,56932,11.06,72330.8,-1.71,-4.99,-5.03,0,*5E
1487844425.04,56933,11.06,72326.3,-1.71,-5.07,-5.07,0,*5D
1487844426.3,56934,11.06,72320.5,-1.71,-5.15,-5.07,0,*59
1487844427.54,56935,11.06,72330.0,-1.73,-4.99,-4.89,0,*58
1487844428.76,56936,11.06,72340.3,-1.75,-4.77,-4.65,0,*5F
1487844429.98,56937,11.06,72340.0,-1.73,-4.61,-4.49,0,*51
1487844431.19,56938,11.06,72332.8,-1.75,-4.33,-4.29,0,*59
1487844432.39,56939,11.06,72338.8,-1.75,-4.17,-4.05,0,*50
1487844433.61,56940,11.06,72330.5,-1.73,-4.41,-4.29,0,*55
1487844434.83,56941,11.06,72336.8,-1.73,-4.17,-4.13,0,*5E
1487844436.03,56942,11.06,72332.5,-1.75,-4.65,-4.53,0,*5A
1487844437.27,56943,11.13,72336.5,-1.75,-4.77,-4.69,0,*51
1487844438.5,56944,11.06,72326.3,-1.73,-4.65,-4.61,0,*5B
1487844439.74,56945,11.06,72320.5,-1.75,-4.81,-4.77,0,*51
1487844440.99,56946,11.06,72328.3,-1.75,-4.89,-4.81,0,*53
1487844442.21,56947,11.06,72340.3,-1.81,-5.19,-5.39,0,*53
1487844443.48,56948,11.06,72342.0,-1.83,-5.69,-5.77,0,*53
1487844444.68,56949,11.06,72318.3,-1.81,-5.51,-5.51,0,*5F
1487844445.96,56950,11.06,72280.5,-1.83,-5.19,-5.15,0,*59
1487844447.2,56951,11.06,72274.8,-1.85,-4.77,-4.77,0,*52
1487844448.38,56952,11.06,72296.3,-1.85,-4.45,-4.33,0,*50
1487844449.59,56953,11.06,72296.5,-1.85,-4.69,-4.65,0,*5C
1487844450.87,56954,11.06,72326.8,-1.83,-5.11,-5.15,0,*55
1487844452.12,56955,11.06,72348.8,-1.85,-5.03,-5.03,0,*56
1487844453.37,56956,11.06,72360.5,-1.85,-5.03,-4.93,0,*5D
1487844454.64,56957,11.06,72340.8,-1.87,-5.07,-5.07,0,*56
1487844455.91,56958,11.06,72314.8,-1.87,-5.07,-4.93,0,*55
1487844457.11,56959,11.06,72312.0,-1.89,-4.61,-4.57,0,*53
1487844458.35,56960,11.06,72342.5,-1.89,-4.85,-4.85,0,*5C
1487844459.62,56961,11.06,72336.3,-1.91,-5.11,-5.11,0,*54
1487844460.9,56962,11.06,72330.5,-1.91,-5.27,-5.15,0,*56
1487844462.12,56963,11.06,72318.0,-1.91,-5.39,-5.51,0,*58
1487844463.33,56964,11.06,72302.0,-1.93,-5.55,-5.55,0,*53
1487844464.58,56965,11.06,72308.5,-1.93,-5.15,-5.11,0,*56
1487844465.82,56966,11.06,72320.8,-1.95,-5.35,-5.31,0,*53
1487844467.1,56967,11.06,72310.0,-1.95,-5.19,-5.19,0,*56
1487844468.32,56968,11.06,72318.3,-1.97,-5.55,-5.69,0,*54
1487844469.54,56969,11.06,72302.0,-1.97,-6.13,-6.23,0,*59
1487844470.76,56970,11.06,72300.0,-2.01,-6.09,-6.19,0,*5F
1487844471.98,56971,11.06,72290.5,-2.01,-6.27,-6.31,0,*58
1487844473.17,56972,11.06,72306.3,-2.01,-5.97,-6.01,0,*50
1487844474.45,56973,11.06,72308.8,-2.07,-5.81,-5.93,0,*58
1487844475.73,56974,11.06,72316.0,-2.07,-5.93,-5.93,0,*5C
1487844476.92,56975,11.06,72304.8,-2.09,-5.97,-6.09,0,*57
1487844478.18,56976,11.06,72312.5,-2.11,-6.09,-6.19,0,*58
1487844479.45,56977,11.06,72322.5,-2.11,-5.85,-5.93,0,*5F
1487844480.7,56978,11.06,72324.8,-2.13,-5.85,-5.97,0,*56
1487844481.96,56979,11.06,72312.0,-2.13,-5.73,-5.77,0,*50
1487844483.21,56980,11.06,72316.8,-2.15,-5.77,-5.77,0,*54
1487844484.46,56981,11.06,72338.3,-2.13,-6.01,-6.27,0,*57
1487844485.68,56982,11.06,72332.5,-2.17,-6.13,-6.59,0,*5A
1487844486.92,56983,11.06,72314.5,-2.17,-6.19,-6.69,0,*52
1487844488.11,56984,11.06,72320.3,-2.19,-6.05,-6.77,0,*59
1487844489.36,56985,11.06,72330.8,-2.19,-6.19,-7.01,0,*55
1487844490.6,56986,11.06,72332.0,-2.19,-7.31,-7.77,0,*5C
1487844491.84,56987,11.06,72336.3,-2.19,-7.69,-7.65,0,*53
1487844493.09,56988,11.06,72332.5,-2.19,-7.65,-7.77,0,*53
1487844494.34,56989,11.06,72332.0,-2.21,-7.11,-7.27,0,*5F
1487844495.61,56990,11.06,72342.8,-2.21,-7.27,-7.57,0,*55
1487844496.83,56991,11.06,72334.8,-2.19,-7.95,-8.21,0,*58
1487844498.05,56992,11.06,72328.0,-2.19,-8.03,-7.83,0,*5C
1487844499.29,56993,11.06,72346.8,-2.17,-7.49,-7.39,0,*53
1487844500.56,56994,11.06,72344.5,-2.17,-7.91,-7.73,0,*5F
1487844501.8,56995,11.06,72342.5,-2.19,-7.91,-7.39,0,*5E
1487844503.01,56996,11.06,72354.0,-2.19,-7.69,-7.15,0,*54
1487844504.23,56997,11.06,72358.5,-2.17,-7.49,-6.47,0,*5F
1487844505.45,56998,11.06,72336.8,-2.17,-7.23,-6.01,0,*5E
1487844506.69,56999,11.06,72336.3,-2.17,-6.73,-5.81,0,*50
1487844507.94,57000,11.06,72336.0,-2.17,-6.43,-5.77,0,*52
1487844509.14,57001,11.06,72336.3,-2.15,-6.01,-5.35,0,*51